sat.trackr.live / text

‹ back to catalog

GPS BIIRM-4 (PRN 15)

NORAD 32260 · 2007-047A

PAYLOAD ACTIVE UNKNOWN

§ Identity

Operator
Country
US
Launch date
2007-10-17
Launch site
AFETR
Launch vehicle
Mass (kg)
RCS (m²)
9.27

Purposes: earth_obs, nav

External: N2YO · Heavens-Above · Gunter

§ Orbital elements

Epoch: 2026-09-09T11:43:55.018272Z

Period
718.02 min
Inclination
54.1623°
Eccentricity
0.0169000
Mean motion
2.00551791 rev/d
Perigee alt
19,734.4 km
Apogee alt
20,632.1 km
Semi-major
26,561.4 km
B*
0.0000e+0
RAAN
76.5926°
Arg perigee
89.3664°
Mean anomaly
272.6331°
Rev number
13,850

§ Raw data

GPS BIIRM-4 (PRN 15)1 32260U 07047A   26252.48883123  .00000007  00000+0  00000+0 0  99902 32260  54.1623  76.5926 0169000  89.3664 272.6331  2.00551791138504

JSON: /api/v1/satellites/32260 · /tle

For live sub-satellite position, see the globe view (requires WebGL).

§ Visibility from observer

Set your observer location to see the next 7 days of passes ≥ 10°. The values pass through the URL so the page stays shareable.

No JS? Fill the form by hand. The geolocation button needs JavaScript.